Ukiivik

KL  EN  DA
ASIAQ
Weather Now GREENLAND SURVEY
Updated [WGT/WGST] Temperature [°C] Wind [m/s] Air pressure [hPa] Relative humidity [%] Precipitation [mm]
Present Wind chill Speed Max
25.02 08:00-10,2-19,78,2 ⇐10,8101168n/a
25.02 07:00-10,1-18,76,7 ⇐9,8101173n/a
25.02 06:00-10,2-19,78,2 ⇐10,8101268n/a
25.02 05:00-11,6-23,011,3 ⇐13,4101272n/a
25.02 04:00-11,8-20,66,2 ⇐9,8101373n/a
25.02 03:00-11,5-20,87,2 ⇖8,8101368n/a
25.02 02:00-11,0-19,96,7 ⇐9,8101368n/a
25.02 01:00-10,9-19,76,7 ⇐9,8101373n/a
25.02 00:00-10,8-19,66,7 ⇐8,8101375n/a
24.02 23:00-10,6-18,75,7 ⇐7,2101385n/a
24.02 22:00-10,1-17,65,1 ⇖6,2101384n/a
24.02 21:00-9,5-16,04,1 ⇐5,1101386n/a
24.02 20:00-9,1-15,64,1 ⇘7,7101278n/a
24.02 19:00-8,3-16,77,2 ⇘9,8101147n/a
24.02 18:00-8,2-16,36,7 ⇘10,3101052n/a
24.02 17:00-8,2-17,48,8 ⇘11,3100952n/a
24.02 16:00-8,1-18,110,8 ⇘12,9100860n/a
24.02 15:00-8,7-15,95,1 ⇓9,8100879n/a
24.02 14:00-7,6-16,89,3 ⇘11,3100657n/a
24.02 13:00-8,0-18,913,4 ⇘16,0100574n/a
24.02 12:00-10,1-17,24,6 ⇐6,7100489n/a
24.02 11:00-8,1-17,28,8 ⇘16,0100281n/a
24.02 10:00-9,2-13,32,1 ⇖3,1100267n/a
24.02 09:00-8,8-14,23,1 ⇐4,6100162n/a
24.02 08:00-9,2-15,74,1 ⇐5,7100069n/a
Position: (62.57888889,-50.40583333)

[Back]